Date String (YYYY-MM-DD hh:mm:ss) UTC,Instrument flags,Ambient pressure (hPa),Sample flow (lpm),Bypass flow (lpm),Sample temperature (°C),Ambient temperature (°C),ASC tube jacket temperature (°C),LED temperature (°C),Box temperature (°C),Sample RH (%),Span deviation,Mass concentration (μg/m³),Mass concentration (μg/m³),Mass concentration (μg/m³)
DateTimeUTC,F1_M11,P_M11,Q1_M11,Q2_M11,T1_M11,T2_M11,T3_M11,T4_M11,T5_M11,U1_M11,ZSPAN_M11,X0_M11,X2_M11,X1_M11
2022-12-22 22:00:00,,0828.9,5.03,0.00,21.2,21.5,00.0,29.9,23.0,02.8,0002.7,0013.47,0007.86,0007.01
2022-12-22 22:01:00,,0829.1,4.95,0.00,21.2,20.8,00.0,29.9,22.8,02.8,0002.7,0014.00,0007.87,0007.00
2022-12-22 22:02:00,,0828.9,5.03,0.00,21.1,20.1,00.0,29.9,22.6,02.8,0002.4,0013.96,0007.88,0007.02
2022-12-22 22:03:00,,0829.1,5.02,0.00,21.0,19.4,00.0,29.9,22.3,02.8,0002.4,0014.06,0007.88,0007.03
2022-12-22 22:04:00,,0829.1,4.98,0.00,20.9,18.9,00.0,29.9,22.1,02.9,0002.6,0014.56,0007.92,0007.06
2022-12-22 22:05:00,,0828.9,5.00,0.00,20.9,19.9,00.0,29.8,22.4,02.9,0002.7,0014.38,0007.88,0007.06
2022-12-22 22:06:00,,0829.0,5.04,0.00,21.0,21.0,00.0,29.8,22.7,02.8,0002.8,0014.37,0007.82,0007.05
2022-12-22 22:07:00,,0829.1,4.97,0.00,21.2,21.6,00.0,29.8,23.0,02.8,0002.3,0013.91,0007.83,0007.04
2022-12-22 22:08:00,,0829.0,5.04,0.00,21.2,20.8,00.0,29.9,22.8,02.8,0002.4,0013.71,0007.88,0007.06
2022-12-22 22:09:00,,0829.0,4.95,0.00,21.0,19.8,00.0,29.9,22.5,02.8,0002.3,0014.01,0007.90,0007.06
2022-12-22 22:10:00,,0828.9,5.03,0.00,21.0,19.2,00.0,29.9,22.3,02.9,0002.0,0013.88,0007.90,0007.07
2022-12-22 22:11:00,,0828.9,5.02,0.00,20.9,18.9,00.0,29.9,22.2,02.9,0002.0,0013.82,0007.90,0007.09
2022-12-22 22:12:00,,0829.0,4.96,0.00,20.9,19.9,00.0,29.8,22.4,02.9,0001.8,0013.45,0007.94,0007.11
2022-12-22 22:13:00,,0829.1,5.03,0.00,21.0,21.1,00.0,29.8,22.8,02.9,0002.1,0013.55,0007.98,0007.13
2022-12-22 22:14:00,,0829.2,4.97,0.00,21.2,21.5,00.0,29.8,23.0,02.8,0002.0,0013.56,0007.99,0007.15
2022-12-22 22:15:00,,0829.2,5.03,0.00,21.1,20.6,00.0,29.9,22.7,02.8,0001.8,0013.05,0007.93,0007.14
2022-12-22 22:16:00,,0829.1,4.98,0.00,21.0,19.6,00.0,29.9,22.3,02.9,0001.7,0013.17,0007.91,0007.12
2022-12-22 22:17:00,,0829.2,4.98,0.00,20.8,18.7,00.0,29.9,22.0,02.9,0001.8,0013.22,0007.95,0007.11
2022-12-22 22:18:00,,0829.2,5.02,0.00,20.7,18.4,00.0,29.8,21.9,02.9,0001.8,0014.07,0007.93,0007.09
2022-12-22 22:19:00,,0829.1,5.02,0.00,20.8,19.7,00.0,29.8,22.2,02.9,0001.7,0014.30,0007.82,0007.05
2022-12-22 22:20:00,,0829.2,4.96,0.00,20.9,20.9,00.0,29.7,22.6,02.9,0002.0,0014.06,0007.76,0007.03
2022-12-22 22:21:00,,0829.2,5.02,0.00,21.0,21.4,00.0,29.8,22.8,02.9,0002.2,0014.25,0007.69,0006.99
2022-12-22 22:22:00,,0829.1,4.96,0.00,21.0,20.7,00.0,29.8,22.6,02.9,0002.1,0014.34,0007.69,0006.96
2022-12-22 22:23:00,,0829.1,5.04,0.00,21.0,20.0,00.0,29.8,22.4,02.9,0002.1,0014.48,0007.64,0006.93
2022-12-22 22:24:00,,0829.0,5.00,0.00,20.9,19.4,00.0,29.8,22.3,02.9,0002.0,0014.37,0007.57,0006.87
2022-12-22 22:25:00,,0829.0,4.96,0.00,20.8,19.2,00.0,29.8,22.2,02.9,0002.0,0014.31,0007.49,0006.82
2022-12-22 22:26:00,,0829.3,5.03,0.00,20.9,20.2,00.0,29.8,22.5,02.9,0002.1,0014.38,0007.47,0006.78
2022-12-22 22:27:00,,0829.3,4.97,0.00,21.0,21.3,00.0,29.7,22.8,02.9,0002.3,0014.54,0007.46,0006.75
2022-12-22 22:28:00,,0829.4,5.03,0.00,21.2,21.7,00.0,29.8,23.0,02.9,0002.4,0014.79,0007.43,0006.73
2022-12-22 22:29:00,,0829.2,4.95,0.00,21.2,21.0,00.0,29.9,22.9,02.9,0002.5,0013.75,0007.41,0006.70
2022-12-22 22:30:00,,0829.3,5.03,0.00,21.1,20.2,00.0,29.9,22.7,02.9,0002.6,0013.67,0007.43,0006.68
2022-12-22 22:31:00,,0829.3,5.03,0.00,21.0,19.5,00.0,29.9,22.4,02.9,0002.4,0013.79,0007.43,0006.65
2022-12-22 22:32:00,,0829.3,4.96,0.00,20.9,19.2,00.0,29.9,22.3,02.9,0002.3,0013.55,0007.45,0006.64
2022-12-22 22:33:00,,0829.3,5.04,0.00,21.0,20.3,00.0,29.8,22.6,02.9,0002.3,0013.46,0007.42,0006.61
2022-12-22 22:34:00,,0829.2,4.99,0.00,21.1,21.3,00.0,29.8,22.9,02.9,0002.3,0013.20,0007.38,0006.56
2022-12-22 22:35:00,,0829.3,5.01,0.00,21.3,21.6,00.0,29.8,23.1,02.8,0002.2,0013.05,0007.33,0006.52
2022-12-22 22:36:00,,0829.3,5.02,0.00,21.2,20.7,00.0,29.9,22.8,02.8,0002.0,0012.97,0007.29,0006.48
2022-12-22 22:37:00,,0829.2,4.96,0.00,21.1,19.8,00.0,29.9,22.6,02.8,0001.9,0013.25,0007.25,0006.44
2022-12-22 22:38:00,,0829.2,5.03,0.00,21.0,19.1,00.0,29.9,22.4,02.8,0001.7,0013.50,0007.21,0006.41
2022-12-22 22:39:00,,0829.2,5.03,0.00,20.9,19.0,00.0,29.9,22.2,02.8,0001.8,0013.59,0007.16,0006.37
2022-12-22 22:40:00,,0829.2,4.98,0.00,21.0,20.1,00.0,29.8,22.5,02.8,0001.9,0013.68,0007.09,0006.32
2022-12-22 22:41:00,,0829.2,4.99,0.00,21.1,21.1,00.0,29.8,22.8,02.8,0001.8,0013.92,0007.04,0006.29
2022-12-22 22:42:00,,0829.2,5.00,0.00,21.2,21.7,00.0,29.8,23.0,02.8,0001.8,0013.62,0007.01,0006.27
2022-12-22 22:43:00,,0829.3,4.98,0.00,21.2,20.9,00.0,29.9,22.8,02.8,0001.9,0013.61,0006.98,0006.24
2022-12-22 22:44:00,,0829.3,5.03,0.00,21.1,20.0,00.0,29.9,22.6,02.8,0002.4,0014.15,0006.95,0006.23
2022-12-22 22:45:00,,0829.2,4.97,0.00,21.0,19.3,00.0,29.9,22.4,02.8,0002.8,0014.05,0006.90,0006.21
2022-12-22 22:46:00,,0829.2,4.98,0.00,20.9,18.8,00.0,29.9,22.2,02.8,0003.1,0013.97,0006.87,0006.20
2022-12-22 22:47:00,,0829.3,5.03,0.00,20.9,19.5,00.0,29.8,22.3,02.8,0003.4,0013.99,0006.89,0006.23
2022-12-22 22:48:00,,0829.5,5.03,0.00,21.0,20.7,00.0,29.8,22.7,02.8,0003.6,0013.70,0006.90,0006.25
2022-12-22 22:49:00,,0829.5,4.97,0.00,21.2,21.6,00.0,29.8,22.9,02.8,0003.4,0013.07,0006.93,0006.29
2022-12-22 22:50:00,,0829.5,5.01,0.00,21.2,21.5,00.0,29.9,22.9,02.8,0003.3,0012.63,0006.93,0006.32
2022-12-22 22:51:00,,0829.3,4.99,0.00,21.2,20.5,00.0,29.9,22.7,02.8,0003.2,0012.56,0006.97,0006.35
2022-12-22 22:52:00,,0829.3,5.03,0.00,21.0,19.6,00.0,29.9,22.4,02.7,0003.2,0011.98,0007.00,0006.35
2022-12-22 22:53:00,,0829.4,4.99,0.00,20.9,18.8,00.0,29.9,22.1,02.7,0003.0,0012.09,0006.99,0006.32
2022-12-22 22:54:00,,0829.5,4.97,0.00,20.8,18.8,00.0,29.9,22.1,02.8,0003.0,0012.20,0006.95,0006.31
2022-12-22 22:55:00,,0829.5,5.01,0.00,20.9,20.1,00.0,29.8,22.4,02.8,0002.6,0011.60,0006.91,0006.30
2022-12-22 22:56:00,,0829.5,5.03,0.00,21.0,21.1,00.0,29.8,22.8,02.7,0002.2,0011.51,0006.93,0006.29
2022-12-22 22:57:00,,0829.5,4.97,0.00,21.2,21.7,00.0,29.8,23.0,02.7,0002.0,0011.54,0006.91,0006.25
2022-12-22 22:58:00,,0829.3,5.03,0.00,21.2,20.9,00.0,29.9,22.8,02.7,0001.8,0011.49,0006.86,0006.19
2022-12-22 22:59:00,,0829.2,4.96,0.00,21.1,19.9,00.0,29.9,22.5,02.7,0001.8,0011.49,0006.84,0006.13
